Regional Weather Roundup
Issued by NWS Sioux Falls, SD

Home | Current Version | Previous Version | Text Only | Print | Product List | Glossary On
Versions: 1 2 3 4 5 6 7 8 9 10 11 12 13 14 15 16 17 18 19 20 21 22 23 24 25 26 27 28 29 30 31 32 33 34 35 36 37 38 39 40 41 42 43 44 45 46 47 48 49 50
000
ASUS43 KFSD 220110
RWRFSD

WEATHER ROUNDUP FOR SE SOUTH DAKOTA/SW MINNESOTA/NW IOWA
NATIONAL WEATHER SERVICE SIOUX FALLS SD
800 PM CDT SUN SEP 21 2014

NOTE: "FAIR" INDICATES FEW OR NO CLOUDS BELOW 12,000 FEET WITH NO
SIGNIFICANT WEATHER AND OR OBSTRUCTIONS TO VISIBILITY.


SDZ038>040-050-052>070-220200-
SOUTHEAST SOUTH DAKOTA

CITY           SKY/WX    TMP DP  RH WIND       PRES   REMARKS
CHAMBERLAIN    CLEAR     64  44  47 E3        30.24S
HURON          CLEAR     59  45  59 NE5       30.23S
MADISON        FAIR      54  48  82 N5        30.25S
MITCHELL       CLEAR     61  47  59 CALM      30.24S
SIOUX FALLS    CLEAR     57  46  66 N7        30.23S
WINNER         FAIR      68  40  35 CALM      30.25S
YANKTON        CLEAR     63  46  55 N5        30.24S
$$

MNZ071-072-080-081-089-090-097-098-220200-
SOUTHWEST MINNESOTA

CITY           SKY/WX    TMP DP  RH WIND       PRES   REMARKS
FAIRMONT       PTCLDY    55  45  67 NW3       30.22R
JACKSON        CLEAR     55  46  71 N3        30.23S
LUVERNE        CLEAR     61  46  59 NE3       30.24S
MARSHALL       CLEAR     59  46  63 N6        30.22S
MONTEVIDEO     CLEAR     55  48  76 CALM      30.24R
PIPESTONE      CLEAR     59  46  63 CALM      30.24S
REDWOOD FALLS  CLEAR     58  50  75 NW3       30.22R
TRACY          CLEAR     56  49  75 CALM      30.23S
WINDOM         CLEAR     54  46  76 N5        30.23S
WORTHINGTON    CLEAR     55  45  67 N6        30.24S
$$

IAZ001>003-012>014-020>022-031-032-NEZ013-014-SDZ071-220200-
NORTHWEST IOWA

CITY           SKY/WX    TMP DP  RH WIND       PRES   REMARKS
CHEROKEE       CLEAR     57  51  79 CALM      30.23R
DENISON        CLEAR     61  48  63 N3        30.20S
ESTHERVILLE    CLEAR     55  48  77 N7        30.22R
LE MARS          N/A     59  52  77 CALM      30.23S
ORANGE CITY    CLEAR     64  46  52 N5        30.24R
SHELDON        CLEAR     55  50  82 NE5       30.22S
SIOUX CITY     CLEAR     62  48  60 N3        30.23R
SPENCER        CLEAR     57  47  69 N7        30.23R
$$

ABBREVIATIONS USED IN REMARKS
   TC - TEMPERATURE IN CELSIUS
  WCI - WIND CHILL INDEX
   HX - HEAT INDEX
  VSB - VISIBILITY



USA.gov is the U.S. government's official web portal to all federal, state and local government web resources and services.